Location: Lac Lasalle
(46.0398°N, 74.1576°W)
Time: 00:57:47
(UTC-05:00)

AO-73 - Pass Details

Date: 14 December 2019
Orbit: 581 x 664 km, 97.6° (Epoch: 20 January)

Event Time Altitude Azimuth Distance (km) Brightness Sun altitude
Rises 05:47:15 0° 21° (NNE) 2,850 ? -17.1°
Reaches altitude 10° 05:49:37 10° 31° (NNE) 1,932 ? -16.7°
Maximum altitude 05:53:25 33° 96° (E) 987 ? -16.1°
Drops below altitude 10° 05:57:09 10° 162° (SSE) 1,896 ? -15.5°
Sets 05:59:27 0° 172° (S) 2,788 ? -15.1°
